EN

Hourly Weather Lagowiec

Today, 28 July, Wednesday

Time Temperature Precipitation Wind Pressure Humidity
00:00 +22°C° 0 mm 1 mps 750 mmHg 65%
01:00 +22°C° 0 mm 1 mps 750 mmHg 65%
02:00 +22°C° 0 mm 1 mps 749 mmHg 67%
03:00 +21°C° 0 mm 1 mps 749 mmHg 68%
04:00 +20°C° 0 mm 2 mps 749 mmHg 69%
05:00 +21°C° 0 mm 2 mps 749 mmHg 68%
06:00 +23°C° 0 mm 2 mps 749 mmHg 67%
07:00 +24°C° 0 mm 2 mps 749 mmHg 62%
08:00 +26°C° 0 mm 3 mps 749 mmHg 57%
09:00 +27°C° 0 mm 4 mps 749 mmHg 52%
10:00 +29°C° 0 mm 4 mps 749 mmHg 47%
11:00 +29°C° 0 mm 5 mps 749 mmHg 45%
12:00 +29°C° 0 mm 5 mps 749 mmHg 43%
13:00 +30°C° 0 mm 6 mps 748 mmHg 41%
14:00 +29°C° 0 mm 5 mps 749 mmHg 42%
15:00 +29°C° 0 mm 5 mps 749 mmHg 43%
16:00 +28°C° 0 mm 4 mps 749 mmHg 44%
17:00 +26°C° 0.1 mm 4 mps 749 mmHg 52%
18:00 +23°C° 0.1 mm 4 mps 749 mmHg 61%
19:00 +22°C° 0.1 mm 3 mps 749 mmHg 69%
20:00 +21°C° 0 mm 3 mps 749 mmHg 74%
21:00 +20°C° 0 mm 3 mps 749 mmHg 79%
22:00 +19°C° 0 mm 3 mps 749 mmHg 84%
23:00 +18°C° 0 mm 3 mps 749 mmHg 86%

Tomorrow, 29 July, Thursday

Time Temperature Precipitation Wind Pressure Humidity
00:00 +18°C° 0 mm 3 mps 749 mmHg 87%
01:00 +18°C° 0 mm 3 mps 749 mmHg 88%
02:00 +17°C° 0 mm 3 mps 749 mmHg 89%
03:00 +17°C° 0 mm 3 mps 749 mmHg 91%
04:00 +17°C° 0 mm 3 mps 749 mmHg 92%
05:00 +18°C° 0 mm 4 mps 749 mmHg 85%
06:00 +19°C° 0 mm 4 mps 749 mmHg 79%
07:00 +20°C° 0 mm 5 mps 749 mmHg 72%
08:00 +21°C° 0 mm 5 mps 749 mmHg 62%
09:00 +23°C° 0 mm 6 mps 749 mmHg 52%
10:00 +26°C° 0 mm 7 mps 749 mmHg 42%
11:00 +26°C° 0 mm 7 mps 749 mmHg 40%
12:00 +26°C° 0 mm 7 mps 749 mmHg 38%
13:00 +26°C° 0 mm 7 mps 749 mmHg 37%
14:00 +26°C° 0 mm 7 mps 749 mmHg 37%
15:00 +26°C° 0 mm 7 mps 749 mmHg 37%
16:00 +26°C° 0 mm 7 mps 749 mmHg 37%
17:00 +24°C° 0 mm 6 mps 749 mmHg 40%
18:00 +25°C° 0 mm 5 mps 749 mmHg 42%
19:00 +23°C° 0 mm 5 mps 749 mmHg 44%
20:00 +21°C° 0 mm 4 mps 749 mmHg 49%
21:00 +20°C° 0 mm 3 mps 749 mmHg 53%
22:00 +18°C° 0 mm 2 mps 749 mmHg 58%
23:00 +17°C° 0 mm 2 mps 749 mmHg 60%

Day after tomorrow, 30 July, Friday

Time Temperature Precipitation Wind Pressure Humidity
00:00 +17°C° 0 mm 2 mps 749 mmHg 62%
01:00 +17°C° 0 mm 2 mps 749 mmHg 63%
02:00 +16°C° 0 mm 2 mps 749 mmHg 65%
03:00 +16°C° 0 mm 2 mps 749 mmHg 67%
04:00 +15°C° 0 mm 2 mps 749 mmHg 69%
05:00 +17°C° 0 mm 2 mps 749 mmHg 64%
06:00 +18°C° 0 mm 3 mps 749 mmHg 59%
07:00 +20°C° 0 mm 3 mps 749 mmHg 54%
08:00 +21°C° 0 mm 4 mps 749 mmHg 49%
09:00 +23°C° 0 mm 4 mps 748 mmHg 45%
10:00 +25°C° 0 mm 5 mps 748 mmHg 40%
11:00 +26°C° 0 mm 5 mps 748 mmHg 39%
12:00 +27°C° 0 mm 5 mps 748 mmHg 37%
13:00 +27°C° 0 mm 6 mps 747 mmHg 35%
14:00 +28°C° 0 mm 5 mps 747 mmHg 35%
15:00 +28°C° 0 mm 5 mps 747 mmHg 35%
16:00 +28°C° 0 mm 5 mps 747 mmHg 36%
17:00 +27°C° 0 mm 3 mps 746 mmHg 41%
18:00 +26°C° 0 mm 2 mps 746 mmHg 45%
19:00 +24°C° 0 mm 1 mps 746 mmHg 50%
20:00 +23°C° 0 mm 1 mps 746 mmHg 53%
21:00 +22°C° 0 mm 1 mps 746 mmHg 56%
22:00 +21°C° 0 mm 1 mps 746 mmHg 59%
23:00 +20°C° 0 mm 1 mps 745 mmHg 60%

31 July, Saturday

Time Temperature Precipitation Wind Pressure Humidity
00:00 +19°C° 0 mm 2 mps 745 mmHg 61%
01:00 +19°C° 0 mm 2 mps 745 mmHg 62%
02:00 +19°C° 0 mm 3 mps 745 mmHg 65%
03:00 +19°C° 0 mm 4 mps 745 mmHg 68%
04:00 +19°C° 0 mm 4 mps 745 mmHg 72%
05:00 +19°C° 0 mm 5 mps 745 mmHg 69%
06:00 +20°C° 0 mm 6 mps 745 mmHg 66%
07:00 +20°C° 0 mm 6 mps 746 mmHg 63%
08:00 +21°C° 0 mm 6 mps 746 mmHg 57%
09:00 +22°C° 0 mm 7 mps 746 mmHg 50%
10:00 +23°C° 0 mm 7 mps 746 mmHg 43%
11:00 +23°C° 0 mm 7 mps 746 mmHg 42%
12:00 +24°C° 0 mm 7 mps 746 mmHg 41%
13:00 +24°C° 0 mm 7 mps 746 mmHg 39%
14:00 +24°C° 0 mm 7 mps 746 mmHg 40%
15:00 +24°C° 0 mm 7 mps 746 mmHg 40%
16:00 +24°C° 0 mm 7 mps 746 mmHg 40%
17:00 +23°C° 0 mm 6 mps 746 mmHg 44%
18:00 +22°C° 0 mm 5 mps 747 mmHg 47%
19:00 +21°C° 0 mm 5 mps 747 mmHg 51%
20:00 +20°C° 0 mm 4 mps 747 mmHg 56%
21:00 +19°C° 0 mm 4 mps 747 mmHg 62%
22:00 +18°C° 0 mm 3 mps 747 mmHg 67%
23:00 +17°C° 0 mm 3 mps 747 mmHg 71%

1 August, Sunday

Time Temperature Precipitation Wind Pressure Humidity
00:00 +16°C° 0 mm 3 mps 747 mmHg 75%
01:00 +16°C° 0 mm 2 mps 747 mmHg 79%
02:00 +15°C° 0 mm 2 mps 747 mmHg 81%
03:00 +15°C° 0 mm 2 mps 747 mmHg 83%
04:00 +15°C° 0 mm 2 mps 747 mmHg 85%
05:00 +16°C° 0 mm 2 mps 747 mmHg 80%
06:00 +17°C° 0 mm 2 mps 747 mmHg 74%
07:00 +19°C° 0 mm 2 mps 748 mmHg 68%
08:00 +20°C° 0 mm 2 mps 747 mmHg 61%
09:00 +23°C° 0 mm 2 mps 747 mmHg 55%
10:00 +24°C° 0 mm 2 mps 747 mmHg 49%
11:00 +25°C° 0 mm 2 mps 747 mmHg 47%
12:00 +25°C° 0 mm 2 mps 747 mmHg 44%
13:00 +25°C° 0 mm 3 mps 746 mmHg 42%
14:00 +25°C° 0 mm 2 mps 746 mmHg 44%
15:00 +25°C° 0 mm 2 mps 746 mmHg 45%
16:00 +24°C° 0 mm 2 mps 746 mmHg 47%
17:00 +24°C° 0 mm 2 mps 746 mmHg 51%
18:00 +23°C° 0 mm 1 mps 746 mmHg 54%
19:00 +22°C° 0 mm 1 mps 746 mmHg 58%
20:00 +21°C° 0.1 mm 1 mps 746 mmHg 63%
21:00 +19°C° 0.1 mm 2 mps 746 mmHg 68%
22:00 +18°C° 0.1 mm 2 mps 746 mmHg 72%
23:00 +17°C° 0.1 mm 2 mps 746 mmHg 77%

2 August, Monday

Time Temperature Precipitation Wind Pressure Humidity
00:00 +17°C° 0.1 mm 3 mps 746 mmHg 81%
01:00 +16°C° 0.1 mm 3 mps 746 mmHg 85%
02:00 +14°C° 0 mm 3 mps 746 mmHg 87%
03:00 +14°C° 0 mm 3 mps 746 mmHg 90%
04:00 +13°C° 0 mm 3 mps 746 mmHg 92%
05:00 +14°C° 0 mm 3 mps 747 mmHg 87%
06:00 +15°C° 0 mm 4 mps 747 mmHg 82%
07:00 +16°C° 0 mm 5 mps 747 mmHg 77%
08:00 +17°C° 0.2 mm 4 mps 747 mmHg 80%
09:00 +17°C° 0.2 mm 4 mps 748 mmHg 83%
10:00 +15°C° 0.2 mm 4 mps 748 mmHg 85%
11:00 +17°C° 0.1 mm 5 mps 748 mmHg 72%
12:00 +20°C° 0.1 mm 5 mps 748 mmHg 59%
13:00 +22°C° 0.1 mm 6 mps 748 mmHg 46%
14:00 +22°C° 0 mm 6 mps 749 mmHg 43%
15:00 +23°C° 0 mm 6 mps 749 mmHg 39%
16:00 +23°C° 0 mm 5 mps 749 mmHg 36%
17:00 +22°C° 0 mm 5 mps 749 mmHg 39%
18:00 +21°C° 0 mm 5 mps 749 mmHg 43%
19:00 +20°C° 0 mm 4 mps 749 mmHg 46%
20:00 +19°C° 0 mm 4 mps 750 mmHg 51%
21:00 +18°C° 0 mm 3 mps 750 mmHg 56%
22:00 +16°C° 0 mm 3 mps 750 mmHg 61%
23:00 +14°C° 0 mm 3 mps 751 mmHg 66%
Show more